Location: Unspecified
(0.0000°N, 0.0000°E)
Time: 21:55:59
(UTC+00:00)

Tiangong 2 - Visible Passes

Search period start: 16 November 2018 00:00
Search period end: 26 November 2018 00:00
Orbit: 382 x 393 km, 42.8° (Epoch: 16 November)

Date Brightness Start Highest point End Pass type
(mag) Time Alt. Az. Time Alt. Az. Time Alt. Az.
16 Nov 1.3 18:09:06 10° NNW 18:12:09 49° NE 18:15:14 10° ESE visible
17 Nov 4.1 18:48:06 10° W 18:50:17 17° SW 18:52:29 10° S visible
18 Nov 4.5 04:43:03 10° SSE 04:44:21 12° SE 04:45:38 10° ESE visible
20 Nov 2.9 04:21:05 10° SSW 04:23:58 32° SE 04:26:50 10° ENE visible
21 Nov 2.2 05:00:05 14° W 05:02:04 25° NW 05:04:45 10° NNE visible
22 Nov 4.0 04:06:29 11° NE 04:06:29 11° NE 04:06:41 10° NE visible
